Location: Campestrin
(46.4667°N, 11.7167°E)
Time: 03:18:11
(UTC+00:00)

IGS 5A - Pass Details

Date: 18 April 2021
Orbit: 583 x 588 km, 97.6° (Epoch: 06 May)

Event Time Altitude Azimuth Distance (km) Brightness Sun altitude
Exits shadow 19:27:45 22° 137° (SE) 1,313 4.6 -13.7°
Maximum altitude 19:30:11 48° 72° (ENE) 772 3.8 -14.0°
Drops below altitude 10° 19:34:10 10° 358° (N) 1,916 6.6 -14.6°
Sets 19:36:23 0° 353° (N) 2,821 7.6 -14.9°
